Location: Sternwarte Stuttgart
(48.7670°N, 9.1830°E)
Time: 23:11:28
(UTC+01:00)

CZ-4C R/B - Pass Details

Date: 24 January 2019
Orbit: 671 x 1331 km, 63.4° (Epoch: 16 February)

Event Time Altitude Azimuth Distance (km) Brightness Sun altitude
Exits shadow 05:31:04 26° 338° (NNW) 1,743 3.6 -24.8°
Maximum altitude 05:31:21 26° 343° (NNW) 1,748 3.6 -24.8°
Drops below altitude 10° 05:36:50 10° 38° (NE) 2,857 5.4 -23.9°
Sets 05:40:12 0° 51° (NE) 3,935 6.4 -23.3°
